Home > Weather > Cabinda > Past weeks

Flag for Angola Past Weather in Cabinda, Angola — Yesterday and Last 2 Weeks

Now
72 °F

Fog.


Feels Like: 67 °F
Forecast: 71 / 76 °F
Wind: 2 mph from East

Location: Pointe Airport-Noire

Current Time: Aug 26, 2016 at 4:38:43 AM

Latest Report: Aug 26, 2016 at 3:00 AM


Visibility: 2 mi

Pressure: 29.95 "Hg

Humidity: 94%

Dew Point: 70 °F

Location of CabindaLocation

Past Weather in Cabinda — Graph

°F

Cabinda Temperature Yesterday

Maximum temperature yesterday: 75 °F (at 9:00 AM)
Minimum temperature yesterday: 73 °F (at 12:00 AM)
Average temperature yesterday: 74 °F

High & Low Weather Summary for the Past Weeks

 TemperatureHumidityPressure
High81 °F (Aug 11, 1:00 PM)100% (Aug 13, 9:00 PM)30.04 "Hg (Aug 13, 9:00 PM)
Low70 °F (Aug 12, 4:00 AM)54% (Aug 11, 1:00 PM)29.86 "Hg (Aug 14, 3:00 PM)
Average74 °F85%29.96 "Hg
* Reported Aug 11 3:00 AM — Aug 26 3:00 AM, Cabinda, Weather by CustomWeather, © 2016

Note: Actual official high and low records may vary slightly from our data, if they occured in-between our weather recording intervals... More about our weather records

Advertising

Cabinda Weather History for the Previous 24 Hours

Scroll right to see more
 ConditionsComfort  
Time TempWeatherWind HumidityBarometerVisibility
3:00 AM
Fri, Aug 26
72 °FFog.2 mph94%29.95 "Hg2 mi
2:00 AM72 °FFog.No wind94%29.95 "Hg2 mi
1:00 AM72 °FPassing clouds.No wind94%29.95 "Hg4 mi
12:00 AM72 °FPassing clouds.No wind94%29.95 "Hg4 mi
11:00 PM
Thu, Aug 25
73 °FPassing clouds.No wind89%29.98 "Hg4 mi
10:00 PM73 °FPassing clouds.No wind89%29.98 "Hg4 mi
9:00 PM73 °FPassing clouds.1 mph89%29.98 "Hg4 mi
8:00 PM73 °FPassing clouds.6 mph89%29.98 "Hg4 mi
7:00 PM73 °FMostly cloudy.3 mph89%29.95 "Hg5 mi
6:00 PM73 °FMore clouds than sun.6 mph89%29.92 "HgN/A
5:00 PM75 °FBroken clouds.6 mph83%29.92 "HgN/A
4:00 PM75 °FMore clouds than sun.8 mph89%29.89 "HgN/A
3:00 PM75 °FMore clouds than sun.8 mph83%29.92 "HgN/A
2:00 PM75 °FMore clouds than sun.9 mph83%29.92 "HgN/A
1:00 PM75 °FBroken clouds.8 mph83%29.95 "HgN/A
12:00 PM75 °FBroken clouds.8 mph83%29.95 "HgN/A
11:00 AM75 °FBroken clouds.6 mph83%29.98 "HgN/A
10:00 AM75 °FMore clouds than sun.6 mph83%30.01 "HgN/A
9:00 AM75 °FBroken clouds.8 mph83%30.01 "Hg5 mi
8:00 AM73 °FBroken clouds.6 mph94%29.98 "Hg4 mi
7:00 AM73 °FLow clouds.2 mph94%29.98 "Hg4 mi
6:00 AM73 °FLow clouds.5 mph94%29.95 "Hg4 mi
5:00 AM73 °FPassing clouds.7 mph94%29.92 "Hg4 mi
4:00 AM73 °FOvercast.7 mph89%29.95 "Hg4 mi
Weather by CustomWeather, © 2016

See weather overviewHow to use our weather pages